Weather History for Palacios, TX

Change the Weather History Date:

Wednesday, March 27, 2013

  Actual Average Record
Temperature  
Mean Temperature 56 °F -  
Max Temperature 70 °F 73 °F 86 °F (2009)
Min Temperature 43 °F 56 °F 33 °F (1955)
Degree Days  
Heating Degree Days 10    
Growing Degree Days 6 (Base 50)    
Moisture  
Dew Point 44 °F    
Average Humidity 58    
Maximum Humidity 71    
Minimum Humidity 36    
Precipitation  
Precipitation 0.00 in - - ()
Sea Level Pressure  
Sea Level Pressure 30.30 in    
Wind  
Wind Speed 9 mph (SE)    
Max Wind Speed 18 mph    
Max Gust Speed 24 mph    
Visibility 10 miles    
Events      
Averages and records for this station are not official NWS values.
T = Trace of Precipitation, MM = Missing Value Source: NWS Daily Summary

Daily Weather History Graph

Daily Weather History Graph

Search for Another Location

Airport:

Trip Planner

Search our weather history database for the weather conditions in past years. The results will help you decide how hot, cold, wet, or windy it might be!

Date:

Astronomy

Mar. 27, 2013 Rise Set
Actual Time 7:20 AM CDT 7:40 PM CDT
Civil Twilight 6:56 AM CDT 8:04 PM CDT
Nautical Twilight 6:29 AM CDT 8:31 PM CDT
Astronomical Twilight 6:01 AM CDT 8:59 PM CDT
Moon 8:18 PM CDT (3/27) 7:16 AM CDT (3/27)
Length of Visible Light 13h 07m
Length of Day
12h 20m
Full, 100% of the Moon is Illuminated
Mar 27
Full
Apr 2
Last Quarter
Apr 10
New
Apr 18
First Quarter
Apr 25
Full

Hourly Weather History & Observations

Time (CDT) Temp. Windchill Dew Point Humidity Pressure Visibility Wind Dir Wind Speed Gust Speed Precip Events Conditions
12:53 AM 50.0 °F - 39.9 °F 68% 30.36 in 10.0 mi SE 5.8 mph - N/A   Clear
1:53 AM 53.1 °F - 41.0 °F 64% 30.34 in 10.0 mi SSE 5.8 mph - N/A   Clear
2:53 AM 52.0 °F - 39.9 °F 63% 30.32 in 10.0 mi SE 3.5 mph - N/A   Clear
3:53 AM 52.0 °F - 39.9 °F 63% 30.31 in 10.0 mi SSE 5.8 mph - N/A   Clear
4:53 AM 48.9 °F - 37.9 °F 66% 30.31 in 10.0 mi East 6.9 mph - N/A   Clear
5:53 AM 48.0 °F - 37.0 °F 66% 30.31 in 10.0 mi East 5.8 mph - N/A   Clear
6:53 AM 43.0 °F 38.8 °F 34.0 °F 71% 30.31 in - ENE 6.9 mph - N/A   Clear
7:53 AM 45.0 °F 41.8 °F 36.0 °F 71% 30.32 in - ENE 5.8 mph - N/A   Clear
8:53 AM 57.0 °F - 44.1 °F 62% 30.34 in - East 5.8 mph - N/A   Clear
9:53 AM 64.0 °F - 39.9 °F 41% 30.35 in 10.0 mi SE 15.0 mph - N/A   Clear
10:53 AM 66.0 °F - 37.9 °F 36% 30.35 in 10.0 mi SE 17.3 mph 21.9 mph N/A   Clear
11:53 AM 66.9 °F - 41.0 °F 39% 30.35 in 10.0 mi ESE 15.0 mph 23.0 mph N/A   Clear
12:53 PM 68.0 °F - 44.1 °F 42% 30.34 in 10.0 mi SE 16.1 mph - N/A   Clear
1:53 PM 68.0 °F - 45.0 °F 43% 30.32 in 10.0 mi SE 16.1 mph 24.2 mph N/A   Scattered Clouds
3:53 PM 68.0 °F - 48.0 °F 49% 30.26 in 10.0 mi SE 17.3 mph - N/A   Partly Cloudy
4:53 PM 66.9 °F - 48.9 °F 52% 30.24 in 10.0 mi SE 15.0 mph 23.0 mph N/A   Overcast
5:53 PM 66.0 °F - 48.9 °F 54% 30.23 in 10.0 mi SE 18.4 mph - N/A   Overcast
6:53 PM 64.9 °F - 48.9 °F 56% 30.23 in 10.0 mi SE 16.1 mph - N/A   Overcast
7:53 PM 64.9 °F - 51.1 °F 61% 30.23 in 10.0 mi SE 15.0 mph - N/A   Overcast
8:53 PM 64.9 °F - 52.0 °F 63% 30.24 in 10.0 mi SE 10.4 mph - N/A   Overcast
9:53 PM 64.9 °F - 52.0 °F 63% 30.24 in 10.0 mi SSE 10.4 mph - N/A   Overcast
10:53 PM 64.9 °F - 53.1 °F 65% 30.25 in 10.0 mi SSE 9.2 mph - N/A   Overcast
11:53 PM 64.9 °F - 54.0 °F 68% 30.24 in 10.0 mi SSE 8.1 mph - N/A   Overcast